Location: Unspecified
(47.8330°N, 0.0000°E)
Time: 19:54:09
(UTC+00:00)

VELOX 1 - Pass Details

Date: 31 August 2019
Orbit: 629 x 643 km, 98.2° (Epoch: 15 September)

Event Time Altitude Azimuth Distance (km) Brightness Sun altitude
Exits shadow 02:09:14 18° 314° (NW) 1,569 ? -26.6°
Drops below altitude 10° 02:10:37 10° 326° (NNW) 2,027 ? -26.5°
Sets 02:13:04 0° 337° (NNW) 2,943 ? -26.3°
